Вернуться в каталог

COSMOS 732

АктивенВоенныеLEO
NORAD 7820·PAYLOAD·🇷🇺 Russia

Запущен May 28, 1975 с Plesetsk Cosmodrome

Loading…

Ближайшие Пролёты (ближайшие 24 часа)

TLE

СвежийSource: Space-Track

Эпоха: Sep 14, 2026, 09:53 UTC

1 07820U 75045A   26257.41247853 -.00000022  00000-0 -35662-4 0  9996
2 07820  74.0151 234.1517 0042060  48.4209  25.4768 12.56725746353489

Отслеживайте COSMOS 732 в реальном времени с AllMySat

Download on the App Store